TimeEDT,TemperatureF,Dew PointF,Humidity,Sea Level PressureIn,VisibilityMPH,Wind Direction,Wind SpeedMPH,Gust SpeedMPH,PrecipitationIn,Events,Conditions,WindDirDegrees,DateUTC
12:15 AM,71.6,57.2,60,29.91,10.0,North,8.1,-,N/A,,Mostly Cloudy,10,2013-09-14 04:15:00
12:35 AM,71.6,55.4,57,29.91,10.0,NNE,8.1,-,N/A,,Mostly Cloudy,20,2013-09-14 04:35:00
12:55 AM,71.6,55.4,57,29.91,10.0,NNE,6.9,-,N/A,,Scattered Clouds,30,2013-09-14 04:55:00
1:15 AM,69.8,53.6,56,29.91,10.0,NE,8.1,-,N/A,,Clear,40,2013-09-14 05:15:00
1:35 AM,69.8,53.6,56,29.91,10.0,NE,8.1,-,N/A,,Clear,40,2013-09-14 05:35:00
1:55 AM,69.8,51.8,53,29.91,10.0,NE,9.2,-,N/A,,Scattered Clouds,40,2013-09-14 05:55:00
2:15 AM,69.8,50.0,49,29.91,10.0,NNE,9.2,-,N/A,,Scattered Clouds,30,2013-09-14 06:15:00
2:35 AM,69.8,50.0,49,29.92,10.0,NE,6.9,-,N/A,,Mostly Cloudy,40,2013-09-14 06:35:00
2:55 AM,68.0,50.0,52,29.92,10.0,NNE,8.1,-,N/A,,Mostly Cloudy,30,2013-09-14 06:55:00
3:15 AM,68.0,50.0,52,29.92,10.0,NNE,8.1,-,N/A,,Scattered Clouds,20,2013-09-14 07:15:00
3:35 AM,68.0,50.0,52,29.92,10.0,NNE,9.2,-,N/A,,Scattered Clouds,30,2013-09-14 07:35:00
3:55 AM,68.0,48.2,49,29.92,10.0,NNE,10.4,16.1,N/A,,Scattered Clouds,30,2013-09-14 07:55:00
4:15 AM,68.0,48.2,49,29.92,10.0,NE,10.4,-,N/A,,Scattered Clouds,40,2013-09-14 08:15:00
4:35 AM,68.0,48.2,49,29.92,10.0,NE,10.4,-,N/A,,Scattered Clouds,40,2013-09-14 08:35:00
4:55 AM,66.2,50.0,56,29.93,10.0,NNE,9.2,-,N/A,,Clear,30,2013-09-14 08:55:00
5:15 AM,66.2,50.0,56,29.93,10.0,NNE,9.2,-,N/A,,Scattered Clouds,30,2013-09-14 09:15:00
5:35 AM,64.4,50.0,59,29.94,10.0,NE,12.7,18.4,N/A,,Scattered Clouds,40,2013-09-14 09:35:00
5:55 AM,64.4,48.2,56,29.95,10.0,NE,10.4,-,N/A,,Scattered Clouds,50,2013-09-14 09:55:00
6:15 AM,64.4,50.0,59,29.95,10.0,NE,6.9,-,N/A,,Scattered Clouds,40,2013-09-14 10:15:00
6:35 AM,64.4,48.2,56,29.96,10.0,NNE,9.2,-,N/A,,Scattered Clouds,30,2013-09-14 10:35:00
6:55 AM,64.4,48.2,56,29.96,10.0,NE,9.2,-,N/A,,Mostly Cloudy,40,2013-09-14 10:55:00
7:15 AM,62.6,48.2,59,29.97,10.0,NE,9.2,-,N/A,,Mostly Cloudy,40,2013-09-14 11:15:00
7:35 AM,64.4,46.4,52,29.98,10.0,NNE,8.1,-,N/A,,Scattered Clouds,30,2013-09-14 11:35:00
7:55 AM,64.4,46.4,52,29.99,10.0,NE,8.1,-,N/A,,Mostly Cloudy,40,2013-09-14 11:55:00
8:15 AM,64.4,46.4,52,29.99,10.0,NE,9.2,-,N/A,,Scattered Clouds,40,2013-09-14 12:15:00
8:35 AM,64.4,48.2,56,30.00,10.0,NE,9.2,-,N/A,,Scattered Clouds,40,2013-09-14 12:35:00
8:55 AM,66.2,48.2,52,30.00,10.0,NE,11.5,18.4,N/A,,Clear,40,2013-09-14 12:55:00
9:15 AM,68.0,48.2,49,30.01,10.0,NE,13.8,17.3,N/A,,Clear,40,2013-09-14 13:15:00
9:35 AM,68.0,50.0,52,30.01,10.0,NE,13.8,20.7,N/A,,Clear,40,2013-09-14 13:35:00
9:55 AM,69.8,50.0,49,30.02,10.0,NE,16.1,19.6,N/A,,Clear,40,2013-09-14 13:55:00
10:15 AM,71.6,50.0,46,30.03,10.0,ENE,13.8,18.4,N/A,,Clear,60,2013-09-14 14:15:00
10:35 AM,71.6,50.0,46,30.03,10.0,NE,10.4,-,N/A,,Clear,40,2013-09-14 14:35:00
10:55 AM,73.4,51.8,47,30.03,10.0,NE,11.5,16.1,N/A,,Clear,40,2013-09-14 14:55:00
11:15 AM,73.4,51.8,47,30.03,10.0,NE,10.4,-,N/A,,Clear,50,2013-09-14 15:15:00
11:35 AM,77.0,51.8,41,30.04,10.0,NE,10.4,-,N/A,,Clear,50,2013-09-14 15:35:00
11:55 AM,73.4,51.8,47,30.04,10.0,NE,6.9,-,N/A,,Scattered Clouds,50,2013-09-14 15:55:00
12:15 PM,75.2,51.8,44,30.04,10.0,NNE,8.1,-,N/A,,Scattered Clouds,20,2013-09-14 16:15:00
12:35 PM,78.8,53.6,42,30.04,10.0,NE,6.9,-,N/A,,Scattered Clouds,40,2013-09-14 16:35:00
12:55 PM,77.0,53.6,44,30.04,10.0,NE,8.1,16.1,N/A,,Scattered Clouds,40,2013-09-14 16:55:00
1:15 PM,78.8,53.6,42,30.04,10.0,NNE,6.9,-,N/A,,Clear,20,2013-09-14 17:15:00
1:35 PM,80.6,53.6,39,30.04,10.0,NE,8.1,-,N/A,,Clear,40,2013-09-14 17:35:00
1:55 PM,80.6,53.6,39,30.03,10.0,NNE,11.5,16.1,N/A,,Clear,20,2013-09-14 17:55:00
2:15 PM,80.6,53.6,39,30.03,10.0,North,8.1,-,N/A,,Scattered Clouds,10,2013-09-14 18:15:00
2:35 PM,80.6,53.6,39,30.03,10.0,NNE,6.9,-,N/A,,Clear,30,2013-09-14 18:35:00
2:55 PM,80.6,53.6,39,30.03,10.0,NNE,11.5,-,N/A,,Scattered Clouds,20,2013-09-14 18:55:00
3:15 PM,82.4,53.6,37,30.02,10.0,North,10.4,16.1,N/A,,Scattered Clouds,360,2013-09-14 19:15:00
3:35 PM,82.4,53.6,37,30.02,10.0,NE,6.9,17.3,N/A,,Clear,50,2013-09-14 19:35:00
3:55 PM,82.4,53.6,37,30.01,10.0,NNE,8.1,-,N/A,,Clear,30,2013-09-14 19:55:00
4:15 PM,82.4,53.6,37,30.01,10.0,ENE,12.7,-,N/A,,Scattered Clouds,60,2013-09-14 20:15:00
4:35 PM,80.6,53.6,39,30.01,10.0,NE,4.6,-,N/A,,Mostly Cloudy,50,2013-09-14 20:35:00
4:55 PM,82.4,53.6,37,30.02,10.0,ENE,6.9,-,N/A,,Mostly Cloudy,60,2013-09-14 20:55:00
5:15 PM,82.4,53.6,37,30.02,10.0,ENE,8.1,-,N/A,,Mostly Cloudy,70,2013-09-14 21:15:00
5:35 PM,80.6,55.4,42,30.03,10.0,NNE,5.8,-,N/A,,Mostly Cloudy,30,2013-09-14 21:35:00
5:55 PM,82.4,55.4,39,30.03,10.0,NE,9.2,-,N/A,,Mostly Cloudy,50,2013-09-14 21:55:00
6:15 PM,82.4,53.6,37,30.03,10.0,NE,6.9,-,N/A,,Mostly Cloudy,40,2013-09-14 22:15:00
6:35 PM,80.6,55.4,42,30.03,10.0,ENE,4.6,-,N/A,,Scattered Clouds,60,2013-09-14 22:35:00
6:55 PM,78.8,57.2,47,30.03,10.0,East,6.9,-,N/A,,Clear,90,2013-09-14 22:55:00
7:15 PM,78.8,59.0,51,30.04,10.0,East,4.6,-,N/A,,Clear,80,2013-09-14 23:15:00
7:35 PM,77.0,59.0,54,30.05,10.0,NNE,5.8,-,N/A,,Clear,20,2013-09-14 23:35:00
7:55 PM,75.2,59.0,57,30.05,10.0,NE,5.8,-,N/A,,Clear,50,2013-09-14 23:55:00
8:15 PM,73.4,59.0,61,30.06,10.0,ENE,3.5,-,N/A,,Clear,60,2013-09-15 00:15:00
8:35 PM,71.6,59.0,64,30.07,10.0,ENE,4.6,-,N/A,,Clear,70,2013-09-15 00:35:00
8:55 PM,71.6,59.0,64,30.07,10.0,ENE,3.5,-,N/A,,Clear,70,2013-09-15 00:55:00
9:15 PM,71.6,59.0,64,30.09,10.0,East,4.6,-,N/A,,Clear,80,2013-09-15 01:15:00
9:35 PM,69.8,59.0,68,30.09,10.0,East,4.6,-,N/A,,Clear,80,2013-09-15 01:35:00
9:55 PM,69.8,59.0,68,30.10,10.0,East,3.5,-,N/A,,Clear,80,2013-09-15 01:55:00
10:15 PM,68.0,59.0,73,30.11,10.0,ENE,4.6,-,N/A,,Clear,70,2013-09-15 02:15:00
10:35 PM,68.0,59.0,73,30.11,10.0,East,4.6,-,N/A,,Clear,80,2013-09-15 02:35:00
10:55 PM,68.0,59.0,73,30.11,10.0,ENE,3.5,-,N/A,,Clear,70,2013-09-15 02:55:00
11:15 PM,66.2,59.0,78,30.12,10.0,NE,3.5,-,N/A,,Mostly Cloudy,50,2013-09-15 03:15:00
11:35 PM,66.2,59.0,78,30.12,10.0,NE,4.6,-,N/A,,Mostly Cloudy,50,2013-09-15 03:35:00
11:55 PM,68.0,59.0,73,30.12,10.0,ENE,4.6,-,N/A,,Mostly Cloudy,70,2013-09-15 03:55:00